Date,TemperatureHighF,TemperatureAvgF,TemperatureLowF,DewpointHighF,DewpointAvgF,DewpointLowF,HumidityHigh,HumidityAvg,HumidityLow,PressureMaxIn,PressureMinIn,WindSpeedMaxMPH,WindSpeedAvgMPH,GustSpeedMaxMPH,PrecipitationSumIn
2013-5-1,75.7,55.5,32.5,37.8,32.4,26.7,93,49,18,30.52,30.41,7,1,0,0.00
2013-5-2,81.1,56.2,36.5,46.8,37.7,27.5,99,56,22,30.56,30.37,11,2,0,0.00
2013-5-3,67.8,50.9,32.4,44.6,39.4,32.2,99,69,39,30.60,30.42,7,2,0,0.00
2013-5-4,71.1,52.0,36.3,46.3,38.5,32.5,99,67,26,30.42,30.30,6,2,0,0.00
2013-5-5,70.3,49.7,29.5,39.4,34.9,29.3,99,64,25,30.39,30.25,5,2,0,0.00
2013-5-6,77.2,53.9,30.4,46.0,37.2,30.2,99,63,21,30.32,30.15,7,1,0,0.00
2013-5-7,81.9,60.6,38.7,55.8,45.0,33.3,99,67,18,30.22,30.09,7,1,0,0.00
2013-5-8,73.9,61.3,47.1,63.2,56.4,46.8,99,85,60,30.25,30.08,5,2,0,0.01
2013-5-9,69.4,60.5,55.8,60.6,58.3,55.5,99,93,68,30.08,29.91,5,1,0,0.73
2013-5-10,81.5,65.4,52.5,62.1,56.7,52.2,99,77,42,29.98,29.91,5,1,0,0.00
2013-5-11,68.9,61.4,56.5,66.0,60.0,56.2,99,96,79,29.91,29.70,5,1,0,0.72
2013-5-12,68.4,56.3,41.2,57.4,47.5,29.1,99,75,40,29.82,29.60,5,1,0,0.09
2013-5-13,55.8,45.7,37.9,35.8,30.3,26.7,86,56,36,30.08,29.82,11,2,0,0.00
2013-5-14,57.7,46.2,32.0,35.4,31.3,26.2,99,60,31,30.09,30.01,13,2,0,0.00
2013-5-15,67.1,47.9,31.5,51.4,40.0,30.5,99,80,27,30.09,29.68,7,1,0,0.16
2013-5-16,78.4,61.2,40.6,57.6,42.2,36.5,99,59,25,29.87,29.65,8,2,0,0.00
2013-5-17,71.1,55.6,44.4,43.1,39.9,35.1,88,58,29,30.27,29.86,9,2,0,0.00
2013-5-18,77.2,56.6,37.6,49.1,41.2,33.0,99,64,23,30.35,30.25,5,1,0,0.00
2013-5-19,71.1,56.4,47.3,57.0,51.5,45.7,99,85,52,30.39,30.23,6,1,0,0.12
2013-5-20,79.7,65.0,54.1,64.5,59.6,53.8,99,85,56,30.23,29.96,4,1,0,0.03
2013-5-21,77.0,60.1,49.3,67.7,57.9,49.0,99,93,70,30.10,29.91,7,1,0,0.51
2013-5-22,63.9,54.9,49.5,60.6,54.1,49.2,99,97,88,30.03,29.93,3,1,0,1.13
2013-5-23,74.8,60.6,51.1,70.0,59.9,50.8,99,98,85,29.96,29.79,4,1,0,0.33
2013-5-24,71.2,59.0,45.3,68.0,57.1,45.0,99,94,75,29.90,29.66,6,1,0,0.71
2013-5-25,48.7,43.9,36.3,47.9,43.4,36.0,99,98,94,29.89,29.79,8,3,0,0.78
2013-5-26,55.4,45.6,36.3,43.4,38.7,36.0,99,79,55,30.13,29.76,11,4,0,0.17
2013-5-27,70.7,52.9,33.3,43.5,38.0,33.0,99,64,27,30.23,30.12,7,2,0,0.00
2013-5-28,73.0,56.0,36.7,47.4,42.7,36.4,99,67,31,30.30,30.18,5,1,0,0.00
2013-5-29,63.0,56.3,49.3,62.0,55.6,46.7,99,98,90,30.21,30.03,3,0,0,0.33
2013-5-30,87.8,71.5,55.8,69.4,63.2,55.5,99,79,42,30.11,30.02,7,1,0,0.00
2013-5-31,94.6,75.7,59.5,70.2,64.5,59.2,99,73,39,30.14,29.93,6,1,0,0.00